| time (UTC) | temp C | wind direction | speed KPH | gust KPH | rain 1hr cm | rain 24hr cm | rain mn cm | humidity % | barometer mb |
| 20260505091005 | 9 | 0 | 0.0 | 0.0 | 0.00 | 0.00 | 0.00 | 92 | 1011.9 |
| 20260505090112 | 9 | 229 | 3.2 | 0.0 | 0.00 | 0.00 | 0.00 | 88 | 1100.1 |
| 20260505085505 | 10 | 0 | 0.0 | 0.0 | 0.00 | 0.00 | 0.00 | 92 | 1011.9 |
| 20260505085005 | 10 | 0 | 0.0 | 0.0 | 0.00 | 0.00 | 0.00 | 92 | 1012.0 |
| 20260505084614 | 9 | 211 | 3.2 | 0.0 | 0.00 | 0.00 | 0.00 | 89 | 1100.1 |
| 20260505083005 | 10 | 0 | 0.0 | 0.0 | 0.00 | 0.00 | 0.00 | 92 | 1012.0 |
| 20260505082005 | 10 | 0 | 0.0 | 0.0 | 0.00 | 0.00 | 0.00 | 92 | 1012.0 |
| 20260505081643 | 9 | 225 | 4.8 | 0.0 | 0.00 | 0.00 | 0.00 | 89 | 1100.1 |
| 20260505081504 | 10 | 0 | 0.0 | 0.0 | 0.00 | 0.00 | 0.00 | 92 | 1012.0 |
| 20260505080132 | 9 | 183 | 3.2 | 0.0 | 0.00 | 0.00 | 0.00 | 89 | 1100.1 |
| 20260505080005 | 10 | 0 | 0.0 | 0.0 | 0.00 | 0.00 | 0.00 | 92 | 1012.1 |
| 20260505075505 | 10 | 0 | 0.0 | 0.0 | 0.00 | 0.00 | 0.00 | 92 | 1012.1 |
| 20260505074627 | 9 | 225 | 3.2 | 0.0 | 0.00 | 0.00 | 0.00 | 89 | 1100.1 |
| 20260505074505 | 10 | 0 | 0.0 | 0.0 | 0.00 | 0.00 | 0.00 | 92 | 1012.1 |
| 20260505073505 | 9 | 0 | 0.0 | 0.0 | 0.00 | 0.00 | 0.00 | 92 | 1012.2 |
| 20260505073141 | 9 | 225 | 1.6 | 0.0 | 0.00 | 0.00 | 0.00 | 88 | 1100.1 |
| 20260505073005 | 9 | 0 | 0.0 | 0.0 | 0.00 | 0.00 | 0.00 | 92 | 1012.2 |
| 20260505072506 | 9 | 0 | 0.0 | 0.0 | 0.00 | 0.00 | 0.00 | 92 | 1012.1 |
| 20260505071640 | 9 | 225 | 1.6 | 0.0 | 0.00 | 0.00 | 0.00 | 88 | 1100.1 |
| 20260505071505 | 9 | 0 | 0.0 | 0.0 | 0.00 | 0.00 | 0.00 | 91 | 1012.1 |
| 20260505071005 | 10 | 0 | 0.0 | 0.0 | 0.00 | 0.00 | 0.00 | 91 | 1012.1 |
| 20260505070005 | 10 | 0 | 0.0 | 0.0 | 0.00 | 0.00 | 0.00 | 91 | 1012.0 |
| 20260505070002 | 9 | 225 | 3.2 | 0.0 | 0.00 | 0.00 | 0.00 | 88 | 1100.1 |
| 20260505064510 | 9 | 225 | 1.6 | 0.0 | 0.00 | 0.00 | 0.00 | 88 | 1100.1 |
| 20260505064505 | 10 | 0 | 0.0 | 0.0 | 0.00 | 0.00 | 0.00 | 91 | 1012.1 |
| 20260505063505 | 10 | 0 | 0.0 | 0.0 | 0.00 | 0.00 | 0.00 | 91 | 1012.1 |
| 20260505063008 | 9 | 225 | 1.6 | 0.0 | 0.00 | 0.00 | 0.00 | 88 | 1100.1 |
| 20260505063005 | 10 | 0 | 0.0 | 0.0 | 0.00 | 0.00 | 0.00 | 91 | 1012.1 |
| 20260505062504 | 10 | 0 | 0.0 | 0.0 | 0.00 | 0.00 | 0.00 | 91 | 1012.1 |
| 20260505061504 | 9 | 225 | 3.2 | 0.0 | 0.00 | 0.00 | 0.00 | 88 | 1100.1 |
| 20260505061005 | 10 | 0 | 0.0 | 0.0 | 0.00 | 0.00 | 0.00 | 91 | 1012.2 |
| 20260505060005 | 10 | 0 | 0.0 | 0.0 | 0.00 | 0.00 | 0.00 | 90 | 1012.1 |
| 20260505060002 | 9 | 225 | 1.6 | 0.0 | 0.00 | 0.00 | 0.00 | 87 | 1100.1 |
| 20260505055505 | 10 | 0 | 0.0 | 0.0 | 0.00 | 0.00 | 0.00 | 90 | 1012.2 |
| 20260505055005 | 10 | 0 | 0.0 | 0.0 | 0.00 | 0.00 | 0.00 | 90 | 1012.2 |
| 20260505054649 | 9 | 225 | 1.6 | 0.0 | 0.00 | 0.00 | 0.00 | 87 | 1100.1 |
| 20260505053139 | 9 | 225 | 3.2 | 0.0 | 0.00 | 0.00 | 0.00 | 86 | 1100.1 |
| 20260505053005 | 10 | 0 | 0.0 | 0.0 | 0.00 | 0.00 | 0.00 | 90 | 1012.1 |
| 20260505052505 | 10 | 0 | 0.0 | 0.0 | 0.00 | 0.00 | 0.00 | 90 | 1012.1 |
| 20260505051630 | 10 | 225 | 3.2 | 0.0 | 0.00 | 0.00 | 0.00 | 86 | 1100.1 |
| 20260505050118 | 10 | 225 | 3.2 | 0.0 | 0.00 | 0.00 | 0.00 | 86 | 1100.1 |
| 20260505041622 | 10 | 219 | 4.8 | 0.0 | 0.00 | 0.00 | 0.00 | 85 | 1100.1 |
| 20260505040125 | 10 | 219 | 4.8 | 0.0 | 0.00 | 0.00 | 0.00 | 84 | 1100.1 |
| 20260505035505 | 10 | 0 | 0.0 | 0.0 | 0.00 | 0.00 | 0.00 | 87 | 1012.4 |
| 20260505034606 | 10 | 219 | 3.2 | 0.0 | 0.00 | 0.00 | 0.00 | 84 | 1100.1 |
| 20260505034005 | 10 | 0 | 0.0 | 0.0 | 0.00 | 0.00 | 0.00 | 86 | 1012.5 |
| 20260505033506 | 10 | 0 | 0.0 | 0.0 | 0.00 | 0.00 | 0.00 | 86 | 1012.5 |
| 20260505033107 | 10 | 223 | 4.8 | 0.0 | 0.00 | 0.00 | 0.00 | 83 | 1100.1 |
| 20260505031503 | 10 | 225 | 4.8 | 0.0 | 0.00 | 0.00 | 0.00 | 82 | 1100.1 |
| 20260505030149 | 10 | 215 | 3.2 | 0.0 | 0.00 | 0.00 | 0.00 | 81 | 1100.1 |
| 20260505030005 | 11 | 0 | 0.0 | 0.0 | 0.00 | 0.00 | 0.00 | 84 | 1012.6 |
| 20260505024637 | 10 | 213 | 4.8 | 0.0 | 0.00 | 0.00 | 0.00 | 80 | 1100.1 |
| 20260505024505 | 11 | 0 | 0.0 | 0.0 | 0.00 | 0.00 | 0.00 | 83 | 1012.6 |
| 20260505023506 | 11 | 0 | 0.0 | 0.0 | 0.00 | 0.00 | 0.00 | 82 | 1012.7 |
| 20260505023130 | 10 | 229 | 4.8 | 0.0 | 0.00 | 0.00 | 0.00 | 79 | 1100.1 |
| 20260505022506 | 11 | 0 | 0.0 | 0.0 | 0.00 | 0.00 | 0.00 | 81 | 1012.8 |
| 20260505022005 | 11 | 0 | 0.0 | 0.0 | 0.00 | 0.00 | 0.00 | 81 | 1012.8 |
| 20260505021619 | 11 | 218 | 4.8 | 0.0 | 0.00 | 0.00 | 0.00 | 78 | 1100.1 |
| 20260505020505 | 11 | 0 | 0.0 | 0.0 | 0.00 | 0.00 | 0.00 | 80 | 1012.8 |
| 20260505020116 | 11 | 224 | 6.4 | 0.0 | 0.00 | 0.00 | 0.00 | 77 | 1100.1 |
| 20260505020005 | 11 | 0 | 0.0 | 0.0 | 0.00 | 0.00 | 0.00 | 80 | 1012.6 |
| 20260505015005 | 11 | 0 | 0.0 | 0.0 | 0.00 | 0.00 | 0.00 | 79 | 1012.6 |
| 20260505014612 | 11 | 198 | 6.4 | 0.0 | 0.00 | 0.00 | 0.00 | 77 | 1100.1 |
| 20260505013505 | 11 | 0 | 0.0 | 0.0 | 0.00 | 0.00 | 0.00 | 78 | 1012.3 |
| 20260505013125 | 11 | 229 | 8.0 | 0.0 | 0.00 | 0.00 | 0.00 | 75 | 1100.1 |
| 20260505013005 | 11 | 0 | 0.0 | 0.0 | 0.00 | 0.00 | 0.00 | 78 | 1012.2 |
| 20260505012505 | 11 | 0 | 0.0 | 0.0 | 0.00 | 0.00 | 0.00 | 77 | 1012.3 |
| 20260505011505 | 11 | 0 | 0.0 | 0.0 | 0.00 | 0.00 | 0.00 | 76 | 1012.1 |
| 20260505011502 | 11 | 248 | 6.4 | 0.0 | 0.00 | 0.00 | 0.00 | 74 | 1100.1 |
| 20260505010505 | 11 | 0 | 0.0 | 0.0 | 0.00 | 0.00 | 0.00 | 75 | 1012.0 |
| 20260505010125 | 11 | 219 | 6.4 | 0.0 | 0.00 | 0.00 | 0.00 | 72 | 1100.1 |
| 20260505005505 | 11 | 0 | 0.0 | 0.0 | 0.00 | 0.00 | 0.00 | 73 | 1011.8 |
| 20260505004627 | 11 | 240 | 9.7 | 0.0 | 0.00 | 0.00 | 0.00 | 71 | 1100.1 |
| 20260505004005 | 12 | 0 | 0.0 | 0.0 | 0.00 | 0.00 | 0.00 | 73 | 1011.6 |
| 20260505003505 | 12 | 0 | 0.0 | 0.0 | 0.00 | 0.00 | 0.00 | 72 | 1011.5 |
| 20260505003116 | 11 | 253 | 6.4 | 0.0 | 0.00 | 0.00 | 0.00 | 70 | 1100.1 |
| 20260505002505 | 12 | 0 | 0.0 | 0.0 | 0.00 | 0.00 | 0.00 | 72 | 1011.4 |
| 20260505001622 | 11 | 244 | 6.4 | 0.0 | 0.00 | 0.00 | 0.00 | 70 | 1100.1 |
| 20260505001505 | 12 | 0 | 0.0 | 0.0 | 0.00 | 0.00 | 0.00 | 72 | 1011.1 |
| 20260505000505 | 12 | 0 | 0.0 | 0.0 | 0.00 | 0.00 | 0.00 | 72 | 1011.0 |
| 20260505000114 | 12 | 225 | 8.0 | 0.0 | 0.00 | 0.00 | 0.00 | 70 | 1100.1 |
| 20260505000005 | 12 | 0 | 0.0 | 0.0 | 0.00 | 0.00 | 0.00 | 72 | 1011.0 |
| 20260504234610 | 12 | 217 | 8.0 | 0.0 | 0.00 | 0.00 | 0.00 | 69 | 1100.1 |
| 20260504234505 | 12 | 0 | 0.0 | 0.0 | 0.00 | 0.00 | 0.00 | 71 | 1010.9 |
| 20260504234005 | 12 | 0 | 0.0 | 0.0 | 0.00 | 0.00 | 0.00 | 70 | 1010.7 |
| 20260504233018 | 12 | 232 | 9.7 | 0.0 | 0.00 | 0.00 | 0.00 | 69 | 1100.1 |
| 20260504232505 | 12 | 0 | 0.0 | 0.0 | 0.00 | 0.00 | 0.00 | 70 | 1010.6 |
| 20260504232006 | 12 | 0 | 0.0 | 0.0 | 0.00 | 0.00 | 0.00 | 69 | 1010.5 |
| 20260504231612 | 12 | 213 | 8.0 | 0.0 | 0.00 | 0.00 | 0.00 | 68 | 1100.1 |
| 20260504231504 | 12 | 0 | 0.0 | 0.0 | 0.00 | 0.00 | 0.00 | 69 | 1010.5 |
| 20260504230111 | 12 | 222 | 9.7 | 0.0 | 0.00 | 0.00 | 0.00 | 68 | 1100.1 |
| 20260504224508 | 13 | 229 | 11.3 | 0.0 | 0.00 | 0.00 | 0.00 | 67 | 1100.1 |
| 20260504223005 | 13 | 0 | 0.0 | 0.0 | 0.00 | 0.00 | 0.00 | 65 | 1010.1 |
| 20260504223002 | 13 | 185 | 9.7 | 0.0 | 0.00 | 0.00 | 0.00 | 66 | 1100.1 |
| 20260504222505 | 13 | 0 | 0.0 | 0.0 | 0.00 | 0.00 | 0.00 | 64 | 1010.1 |
| 20260504222005 | 14 | 0 | 0.0 | 0.0 | 0.00 | 0.00 | 0.00 | 63 | 1010.1 |
| 20260504221641 | 13 | 212 | 8.0 | 0.0 | 0.00 | 0.00 | 0.00 | 64 | 1100.1 |
| 20260504221005 | 14 | 0 | 0.0 | 0.0 | 0.00 | 0.00 | 0.00 | 61 | 1010.2 |
| 20260504220505 | 15 | 0 | 0.0 | 0.0 | 0.00 | 0.00 | 0.00 | 60 | 1010.1 |
| 20260504220110 | 14 | 227 | 9.7 | 0.0 | 0.00 | 0.00 | 0.00 | 63 | 1100.1 |
| 20260504214612 | 15 | 231 | 11.3 | 0.0 | 0.00 | 0.00 | 0.00 | 60 | 1100.1 |
| 20260504214504 | 15 | 0 | 0.0 | 0.0 | 0.00 | 0.00 | 0.00 | 58 | 1010.1 |
| 20260504214005 | 15 | 0 | 0.0 | 0.0 | 0.00 | 0.00 | 0.00 | 58 | 1010.1 |
| 20260504213109 | 15 | 239 | 11.3 | 0.0 | 0.00 | 0.00 | 0.00 | 60 | 1100.1 |
| 20260504213004 | 16 | 0 | 0.0 | 0.0 | 0.00 | 0.00 | 0.00 | 56 | 1010.0 |
| 20260504212005 | 16 | 0 | 0.0 | 0.0 | 0.00 | 0.00 | 0.00 | 56 | 1010.0 |
| 20260504211518 | 15 | 223 | 11.3 | 0.0 | 0.00 | 0.00 | 0.00 | 59 | 1100.1 |
| 20260504210129 | 15 | 222 | 9.7 | 0.0 | 0.00 | 0.00 | 0.00 | 61 | 1100.1 |
| 20260504205005 | 16 | 0 | 0.0 | 0.0 | 0.00 | 0.00 | 0.00 | 54 | 1009.9 |
| 20260504204632 | 15 | 208 | 11.3 | 0.0 | 0.00 | 0.00 | 0.00 | 60 | 1100.1 |
| 20260504204505 | 17 | 0 | 0.0 | 0.0 | 0.00 | 0.00 | 0.00 | 54 | 1009.9 |
| 20260504203137 | 16 | 226 | 12.9 | 0.0 | 0.00 | 0.00 | 0.00 | 56 | 1100.1 |
| 20260504203005 | 17 | 0 | 0.0 | 0.0 | 0.00 | 0.00 | 0.00 | 49 | 1009.6 |
| 20260504201618 | 17 | 253 | 11.3 | 0.0 | 0.00 | 0.00 | 0.00 | 45 | 1100.1 |
| 20260504200137 | 17 | 227 | 14.5 | 0.0 | 0.00 | 0.00 | 0.00 | 47 | 1100.1 |
| 20260504200005 | 19 | 0 | 0.0 | 0.0 | 0.00 | 0.00 | 0.00 | 43 | 1009.7 |
| 20260504195505 | 18 | 0 | 0.0 | 0.0 | 0.00 | 0.00 | 0.00 | 43 | 1009.8 |
| 20260504194640 | 17 | 243 | 14.5 | 0.0 | 0.00 | 0.00 | 0.00 | 45 | 1100.1 |
| 20260504194505 | 18 | 0 | 0.0 | 0.0 | 0.00 | 0.00 | 0.00 | 41 | 1009.7 |
| 20260504193137 | 17 | 248 | 14.5 | 0.0 | 0.00 | 0.00 | 0.00 | 46 | 1100.1 |
| 20260504193005 | 19 | 0 | 0.0 | 0.0 | 0.00 | 0.00 | 0.00 | 42 | 1009.7 |
| 20260504191640 | 18 | 236 | 11.3 | 0.0 | 0.00 | 0.00 | 0.00 | 47 | 1100.1 |
| 20260504191505 | 19 | 0 | 0.0 | 0.0 | 0.00 | 0.00 | 0.00 | 44 | 1009.5 |
| 20260504190142 | 18 | 228 | 11.3 | 0.0 | 0.00 | 0.00 | 0.00 | 49 | 1100.1 |
| 20260504185505 | 20 | 0 | 0.0 | 0.0 | 0.00 | 0.00 | 0.00 | 47 | 1009.7 |
| 20260504184638 | 17 | 182 | 9.7 | 0.0 | 0.00 | 0.00 | 0.00 | 56 | 1100.1 |
| 20260504184505 | 18 | 0 | 0.0 | 0.0 | 0.00 | 0.00 | 0.00 | 52 | 1009.9 |
| 20260504183506 | 19 | 0 | 0.0 | 0.0 | 0.00 | 0.00 | 0.00 | 50 | 1009.9 |
| 20260504183141 | 18 | 238 | 8.0 | 0.0 | 0.00 | 0.00 | 0.00 | 54 | 1100.1 |
| 20260504183006 | 19 | 0 | 0.0 | 0.0 | 0.00 | 0.00 | 0.00 | 51 | 1009.9 |
| 20260504182506 | 19 | 0 | 0.0 | 0.0 | 0.00 | 0.00 | 0.00 | 51 | 1009.8 |
| 20260504182006 | 19 | 0 | 0.0 | 0.0 | 0.00 | 0.00 | 0.00 | 52 | 1009.8 |
| 20260504181628 | 17 | 208 | 11.3 | 0.0 | 0.00 | 0.00 | 0.00 | 58 | 1100.1 |
| 20260504181506 | 18 | 0 | 0.0 | 0.0 | 0.00 | 0.00 | 0.00 | 53 | 1009.7 |
| 20260504180506 | 18 | 0 | 0.0 | 0.0 | 0.00 | 0.00 | 0.00 | 52 | 1009.8 |
| 20260504180130 | 17 | 236 | 11.3 | 0.0 | 0.00 | 0.00 | 0.00 | 55 | 1100.1 |
| 20260504180006 | 18 | 0 | 0.0 | 0.0 | 0.00 | 0.00 | 0.00 | 50 | 1009.8 |
| 20260504174607 | 17 | 225 | 12.9 | 0.0 | 0.00 | 0.00 | 0.00 | 51 | 1100.1 |
| 20260504174007 | 19 | 0 | 0.0 | 0.0 | 0.00 | 0.00 | 0.00 | 46 | 1009.8 |
| 20260504173506 | 19 | 0 | 0.0 | 0.0 | 0.00 | 0.00 | 0.00 | 48 | 1009.8 |
| 20260504173007 | 19 | 0 | 0.0 | 0.0 | 0.00 | 0.00 | 0.00 | 49 | 1009.8 |
| 20260504173002 | 17 | 200 | 12.9 | 0.0 | 0.00 | 0.00 | 0.00 | 54 | 1100.1 |
| 20260504171513 | 18 | 194 | 9.7 | 0.0 | 0.00 | 0.00 | 0.00 | 49 | 1100.1 |
| 20260504171006 | 20 | 0 | 0.0 | 0.0 | 0.00 | 0.00 | 0.00 | 45 | 1009.9 |
| 20260504170506 | 21 | 0 | 0.0 | 0.0 | 0.00 | 0.00 | 0.00 | 41 | 1009.8 |
| 20260504170123 | 19 | 178 | 12.9 | 0.0 | 0.00 | 0.00 | 0.00 | 39 | 1100.1 |
| 20260504160121 | 17 | 225 | 9.7 | 0.0 | 0.00 | 0.00 | 0.00 | 52 | 1100.1 |
| 20260504151007 | 17 | 0 | 0.0 | 0.0 | 0.00 | 0.00 | 0.00 | 54 | 1010.8 |
| 20260504150506 | 18 | 0 | 0.0 | 0.0 | 0.00 | 0.00 | 0.00 | 54 | 1010.8 |
| 20260504150117 | 16 | 219 | 11.3 | 0.0 | 0.00 | 0.00 | 0.00 | 55 | 1100.1 |
| 20260504140506 | 16 | 0 | 0.0 | 0.0 | 0.00 | 0.00 | 0.00 | 43 | 1011.4 |
| 20260504140146 | 17 | 254 | 8.0 | 0.0 | 0.00 | 0.00 | 0.00 | 44 | 1100.1 |
| 20260504130506 | 14 | 0 | 0.0 | 0.0 | 0.00 | 0.00 | 0.00 | 50 | 1011.8 |
| 20260504130123 | 15 | 256 | 8.0 | 0.0 | 0.00 | 0.00 | 0.00 | 49 | 1100.1 |
| 20260504120132 | 11 | 244 | 4.8 | 0.0 | 0.00 | 0.00 | 0.00 | 61 | 1100.1 |
| 20260504110135 | 7 | 244 | 1.6 | 0.0 | 0.00 | 0.00 | 0.00 | 73 | 1100.1 |
| 20260504100140 | 6 | 244 | 0.0 | 0.0 | 0.00 | 0.00 | 0.00 | 76 | 1100.1 |